EW3585 Weather Reports


time (UTC)temp
C
wind
direction
speed
KPH
gust
KPH
rain 1hr
cm
rain 24hr
cm
rain mn
cm
humidity
%
barometer
mb
20260505224654 26 233 4.8 9.7 0.00 0.00 0.00 46 1015.1
20260505224030 26 236 3.2 9.7 0.00 0.00 0.00 45 1015.1
20260505223529 26 211 4.8 17.7 0.00 0.00 0.00 45 1015.4
20260505223149 26 234 6.4 17.7 0.00 0.00 0.00 46 1015.3
20260505222536 26 175 9.7 17.7 0.00 0.00 0.00 44 1015.1
20260505222027 26 250 6.4 17.7 0.00 0.00 0.00 44 1015.0
20260505221704 26 192 8.0 17.7 0.00 0.00 0.00 43 1015.0
20260505221027 26 241 6.4 14.5 0.00 0.00 0.00 43 1015.1
20260505220529 26 221 6.4 14.5 0.00 0.00 0.00 44 1015.1
20260505220202 26 256 6.4 16.1 0.00 0.00 0.00 44 1015.3
20260505215538 26 267 9.7 24.1 0.00 0.00 0.00 44 1015.3
20260505215032 26 196 9.7 24.1 0.00 0.00 0.00 43 1015.2
20260505214702 26 308 8.0 17.7 0.00 0.00 0.00 42 1015.1
20260505214042 26 242 8.0 19.3 0.00 0.00 0.00 41 1015.3
20260505213522 26 190 8.0 19.3 0.00 0.00 0.00 42 1015.3
20260505213150 26 263 8.0 19.3 0.00 0.00 0.00 44 1015.3
20260505212544 26 293 8.0 19.3 0.00 0.00 0.00 43 1015.2
20260505212041 26 226 9.7 19.3 0.00 0.00 0.00 42 1015.3
20260505211709 26 205 6.4 19.3 0.00 0.00 0.00 42 1015.3
20260505211036 26 229 8.0 19.3 0.00 0.00 0.00 41 1015.4
20260505210531 26 246 4.8 11.3 0.00 0.00 0.00 43 1015.4
20260505210218 26 222 3.2 14.5 0.00 0.00 0.00 43 1015.6
20260505205522 26 225 4.8 17.7 0.00 0.00 0.00 44 1015.5
20260505205033 26 238 8.0 17.7 0.00 0.00 0.00 44 1015.6
20260505204648 26 294 9.7 17.7 0.00 0.00 0.00 42 1015.6
20260505204023 26 219 8.0 16.1 0.00 0.00 0.00 43 1015.6
20260505203527 26 238 4.8 19.3 0.00 0.00 0.00 44 1015.6
20260505203159 26 242 8.0 19.3 0.00 0.00 0.00 43 1015.6
20260505202538 26 280 8.0 17.7 0.00 0.00 0.00 43 1015.7
20260505202025 26 257 8.0 20.9 0.00 0.00 0.00 43 1015.8
20260505201630 26 221 6.4 22.5 0.00 0.00 0.00 42 1016.0
20260505201033 26 273 9.7 22.5 0.00 0.00 0.00 42 1015.7
20260505200521 26 310 11.3 20.9 0.00 0.00 0.00 43 1016.0
20260505200145 26 276 6.4 14.5 0.00 0.00 0.00 41 1016.1
20260505195526 26 221 8.0 14.5 0.00 0.00 0.00 43 1016.0
20260505195021 26 300 6.4 16.1 0.00 0.00 0.00 43 1016.0
20260505194619 26 271 8.0 16.1 0.00 0.00 0.00 43 1016.2
20260505194044 26 261 6.4 16.1 0.00 0.00 0.00 43 1016.3
20260505193522 26 232 8.0 24.1 0.00 0.00 0.00 42 1016.4
20260505193130 26 206 9.7 24.1 0.00 0.00 0.00 42 1016.5
20260505192529 25 289 9.7 22.5 0.00 0.00 0.00 41 1016.7
20260505192039 25 269 11.3 22.5 0.00 0.00 0.00 43 1016.7
20260505191626 25 263 8.0 17.7 0.00 0.00 0.00 43 1017.2
20260505191036 25 229 9.7 16.1 0.00 0.00 0.00 42 1017.1
20260505190541 25 232 4.8 12.9 0.00 0.00 0.00 46 1017.2
20260505190106 25 245 4.8 14.5 0.00 0.00 0.00 42 1017.1
20260505185524 25 202 4.8 14.5 0.00 0.00 0.00 44 1017.2
20260505185037 25 244 6.4 14.5 0.00 0.00 0.00 44 1017.3
20260505184613 25 263 6.4 16.1 0.00 0.00 0.00 46 1017.2
20260505184030 25 315 6.4 14.5 0.00 0.00 0.00 46 1017.4
20260505183525 25 219 8.0 14.5 0.00 0.00 0.00 46 1017.3
20260505183126 25 248 6.4 14.5 0.00 0.00 0.00 47 1017.3
20260505182538 25 235 6.4 14.5 0.00 0.00 0.00 45 1017.4
20260505182040 25 213 6.4 14.5 0.00 0.00 0.00 47 1017.3
20260505181558 25 247 4.8 11.3 0.00 0.00 0.00 47 1017.6
20260505181038 25 235 4.8 12.9 0.00 0.00 0.00 47 1017.5
20260505180531 25 261 6.4 19.3 0.00 0.00 0.00 47 1017.5
20260505180135 25 240 9.7 19.3 0.00 0.00 0.00 45 1017.7
20260505175538 25 306 8.0 22.5 0.00 0.00 0.00 49 1017.8
20260505175042 25 232 11.3 22.5 0.00 0.00 0.00 45 1017.8
20260505174631 25 287 9.7 25.7 0.00 0.00 0.00 44 1018.0
20260505174042 25 315 8.0 25.7 0.00 0.00 0.00 46 1018.2
20260505173541 25 257 8.0 25.7 0.00 0.00 0.00 45 1018.3
20260505173136 25 300 8.0 19.3 0.00 0.00 0.00 49 1018.5
20260505172517 25 192 4.8 19.3 0.00 0.00 0.00 51 1018.3
20260505172017 24 244 8.0 19.3 0.00 0.00 0.00 51 1018.3
20260505171630 24 200 8.0 19.3 0.00 0.00 0.00 50 1018.5
20260505171024 24 281 6.4 14.5 0.00 0.00 0.00 53 1018.4
20260505170541 24 198 6.4 16.1 0.00 0.00 0.00 50 1018.5
20260505170145 23 273 6.4 16.1 0.00 0.00 0.00 50 1018.6
20260505165530 23 290 4.8 14.5 0.00 0.00 0.00 54 1018.4
20260505165042 23 298 4.8 12.9 0.00 0.00 0.00 54 1018.4
20260505164641 23 208 4.8 14.5 0.00 0.00 0.00 49 1018.4
20260505164038 23 223 6.4 14.5 0.00 0.00 0.00 55 1018.5
20260505163519 23 227 6.4 14.5 0.00 0.00 0.00 54 1018.6
20260505163115 23 231 4.8 11.3 0.00 0.00 0.00 55 1018.5
20260505162538 23 324 6.4 11.3 0.00 0.00 0.00 55 1018.4
20260505162032 22 223 3.2 9.7 0.00 0.00 0.00 56 1018.6
20260505161643 22 277 4.8 12.9 0.00 0.00 0.00 58 1018.7
20260505161019 22 240 4.8 12.9 0.00 0.00 0.00 58 1018.7
20260505160524 22 207 3.2 9.7 0.00 0.00 0.00 61 1018.8
20260505160201 22 213 3.2 9.7 0.00 0.00 0.00 61 1019.0
20260505153116 21 226 1.6 6.4 0.00 0.00 0.00 64 1019.1
20260505152545 21 144 1.6 8.0 0.00 0.00 0.00 65 1019.1
20260505152037 21 284 1.6 8.0 0.00 0.00 0.00 65 1019.2
20260505151646 21 155 1.6 8.0 0.00 0.00 0.00 63 1019.2
20260505151029 20 210 1.6 8.0 0.00 0.00 0.00 64 1018.9
20260505150537 20 217 3.2 8.0 0.00 0.00 0.00 67 1019.2
20260505150222 20 264 1.6 6.4 0.00 0.00 0.00 66 1019.2
20260505140529 17 319 1.6 4.8 0.00 0.00 0.00 74 1018.8
20260505140226 17 321 1.6 4.8 0.00 0.00 0.00 75 1018.7
20260505130200 16 258 4.8 8.0 0.00 0.00 0.00 81 1018.6
20260505125019 15 209 3.2 8.0 0.00 0.00 0.00 83 1018.4
20260505124652 15 254 3.2 11.3 0.00 0.00 0.00 83 1018.4
20260505124027 15 232 3.2 11.3 0.00 0.00 0.00 82 1018.2
20260505123548 15 258 4.8 11.3 0.00 0.00 0.00 83 1018.5
20260505123129 15 252 3.2 11.3 0.00 0.00 0.00 84 1018.6
20260505122543 15 232 4.8 11.3 0.00 0.00 0.00 83 1018.4
20260505122028 14 225 4.8 8.0 0.00 0.00 0.00 83 1018.6
20260505121637 14 205 3.2 6.4 0.00 0.00 0.00 84 1018.5
20260505121018 13 196 3.2 6.4 0.00 0.00 0.00 84 1018.1
20260505120525 13 211 3.2 6.4 0.00 0.00 0.00 87 1018.3
20260505120137 13 190 0.0 4.8 0.00 0.00 0.00 89 1018.2
20260505115527 12 190 1.6 6.4 0.00 0.00 0.00 90 1018.2
20260505115040 12 190 3.2 6.4 0.00 0.00 0.00 95 1018.1
20260505114637 12 169 1.6 4.8 0.00 0.00 0.00 96 1017.9
20260505114016 12 355 0.0 3.2 0.00 0.00 0.00 96 1017.8
20260505113522 11 355 0.0 3.2 0.00 0.00 0.00 98 1017.7
20260505113141 11 355 0.0 0.0 0.00 0.00 0.00 98 1017.6
20260505112517 11 355 0.0 0.0 0.00 0.00 0.00 97 1017.5
20260505112027 11 355 0.0 0.0 0.00 0.00 0.00 97 1017.7
20260505111616 10 355 0.0 0.0 0.00 0.00 0.00 97 1017.8
20260505111016 10 355 0.0 0.0 0.00 0.00 0.00 97 1017.7
20260505110521 10 355 0.0 0.0 0.00 0.00 0.00 97 1017.7
20260505110142 10 355 0.0 0.0 0.00 0.00 0.00 96 1017.6
20260505102026 10 338 0.0 3.2 0.00 0.00 0.00 95 1017.4
20260505101626 10 338 0.0 1.6 0.00 0.00 0.00 95 1017.5
20260505101023 10 338 0.0 0.0 0.00 0.00 0.00 95 1017.6
20260505100539 10 339 0.0 0.0 0.00 0.00 0.00 95 1017.4
20260505100140 11 338 0.0 0.0 0.00 0.00 0.00 95 1017.5
20260505095522 11 338 0.0 3.2 0.00 0.00 0.00 94 1017.4
20260505095022 11 338 0.0 3.2 0.00 0.00 0.00 94 1017.5
20260505094639 11 338 0.0 0.0 0.00 0.00 0.00 94 1017.6
20260505094029 11 338 0.0 3.2 0.00 0.00 0.00 94 1017.4
20260505093519 11 338 0.0 3.2 0.00 0.00 0.00 93 1017.6
20260505093151 11 338 0.0 1.6 0.00 0.00 0.00 93 1017.5
20260505092541 11 338 0.0 0.0 0.00 0.00 0.00 93 1017.5
20260505092022 11 338 0.0 3.2 0.00 0.00 0.00 93 1017.5
20260505091647 11 338 0.0 3.2 0.00 0.00 0.00 94 1017.5
20260505091021 11 338 0.0 3.2 0.00 0.00 0.00 93 1017.3
20260505090516 11 338 0.0 1.6 0.00 0.00 0.00 93 1017.3
20260505090153 11 338 0.0 3.2 0.00 0.00 0.00 93 1017.6
20260505085522 11 339 0.0 3.2 0.00 0.00 0.00 92 1017.5
20260505085022 11 339 0.0 3.2 0.00 0.00 0.00 93 1017.3
20260505084651 11 338 0.0 3.2 0.00 0.00 0.00 92 1017.3
20260505084032 11 338 0.0 1.6 0.00 0.00 0.00 92 1017.2
20260505083519 11 338 0.0 3.2 0.00 0.00 0.00 93 1017.2
20260505083148 11 339 0.0 4.8 0.00 0.00 0.00 93 1017.2
20260505082535 11 339 0.0 4.8 0.00 0.00 0.00 94 1017.3
20260505082026 11 174 0.0 3.2 0.00 0.00 0.00 94 1017.2
20260505081702 11 174 0.0 3.2 0.00 0.00 0.00 94 1017.3
20260505081017 11 174 0.0 3.2 0.00 0.00 0.00 93 1017.2
20260505080540 12 174 1.6 3.2 0.00 0.00 0.00 94 1017.1
20260505080200 12 174 0.0 3.2 0.00 0.00 0.00 95 1017.0
20260505075528 12 174 0.0 4.8 0.00 0.00 0.00 95 1017.0
20260505075026 11 174 1.6 4.8 0.00 0.00 0.00 96 1017.1
20260505074636 11 177 1.6 3.2 0.00 0.00 0.00 93 1016.9
20260505074039 11 180 0.0 0.0 0.00 0.00 0.00 93 1017.0
20260505073531 11 180 0.0 0.0 0.00 0.00 0.00 93 1016.7
20260505073108 11 180 0.0 0.0 0.00 0.00 0.00 92 1016.8
20260505072532 11 180 0.0 0.0 0.00 0.00 0.00 91 1016.7
20260505072015 11 180 0.0 0.0 0.00 0.00 0.00 91 1016.8
20260505071636 12 180 0.0 0.0 0.00 0.00 0.00 91 1016.8
20260505071027 12 180 0.0 0.0 0.00 0.00 0.00 91 1016.8
20260505070540 12 180 0.0 0.0 0.00 0.00 0.00 91 1016.8
20260505070201 12 180 0.0 0.0 0.00 0.00 0.00 90 1016.9
20260505065527 12 180 0.0 0.0 0.00 0.00 0.00 90 1016.9
20260505065030 12 180 0.0 0.0 0.00 0.00 0.00 89 1016.9
20260505064635 12 180 0.0 3.2 0.00 0.00 0.00 89 1016.8
20260505064027 12 180 0.0 3.2 0.00 0.00 0.00 89 1016.8
20260505063545 12 180 0.0 3.2 0.00 0.00 0.00 89 1017.1
20260505063143 12 180 1.6 3.2 0.00 0.00 0.00 88 1016.8
20260505062518 12 180 0.0 3.2 0.00 0.00 0.00 87 1017.0
20260505062031 13 180 0.0 3.2 0.00 0.00 0.00 87 1016.9
20260505061639 13 180 1.6 3.2 0.00 0.00 0.00 87 1017.2
20260505061022 13 180 1.6 3.2 0.00 0.00 0.00 85 1017.2
20260505060521 13 180 0.0 3.2 0.00 0.00 0.00 85 1017.1
20260505060149 13 180 1.6 3.2 0.00 0.00 0.00 81 1017.1
20260505055540 13 180 0.0 0.0 0.00 0.00 0.00 82 1017.1
20260505055038 13 180 0.0 0.0 0.00 0.00 0.00 80 1017.0
20260505054623 13 180 0.0 0.0 0.00 0.00 0.00 79 1017.0
20260505054018 13 180 0.0 0.0 0.00 0.00 0.00 79 1017.0
20260505053527 13 180 0.0 0.0 0.00 0.00 0.00 80 1017.0
20260505053129 14 180 0.0 0.0 0.00 0.00 0.00 79 1017.0
20260505052533 14 180 0.0 0.0 0.00 0.00 0.00 77 1016.9
20260505052041 14 180 0.0 0.0 0.00 0.00 0.00 77 1017.1
20260505051643 14 180 0.0 0.0 0.00 0.00 0.00 76 1017.1
20260505051030 15 180 0.0 0.0 0.00 0.00 0.00 75 1017.2
20260505050537 15 180 0.0 0.0 0.00 0.00 0.00 74 1017.2
20260505050132 15 180 0.0 0.0 0.00 0.00 0.00 73 1017.2
20260505041705 16 180 0.0 1.6 0.00 0.00 0.00 69 1017.0
20260505041022 16 180 0.0 1.6 0.00 0.00 0.00 71 1017.2
20260505040537 16 180 0.0 1.6 0.00 0.00 0.00 72 1017.2
20260505040230 16 180 0.0 3.2 0.00 0.00 0.00 70 1017.0
20260505035524 16 180 0.0 1.6 0.00 0.00 0.00 69 1017.1
20260505035027 16 180 0.0 1.6 0.00 0.00 0.00 69 1017.2
20260505034630 16 180 0.0 1.6 0.00 0.00 0.00 69 1017.2
20260505034040 16 180 0.0 0.0 0.00 0.00 0.00 70 1017.1
20260505033532 16 180 0.0 0.0 0.00 0.00 0.00 70 1017.3
20260505033152 17 180 0.0 3.2 0.00 0.00 0.00 69 1017.3
20260505032531 17 180 0.0 3.2 0.00 0.00 0.00 70 1017.3
20260505032038 17 180 0.0 3.2 0.00 0.00 0.00 71 1017.2
20260505031632 17 180 0.0 3.2 0.00 0.00 0.00 71 1017.3
20260505031028 17 180 0.0 4.8 0.00 0.00 0.00 70 1017.3
20260505030529 17 180 0.0 4.8 0.00 0.00 0.00 68 1017.2
20260505030203 17 241 0.0 3.2 0.00 0.00 0.00 68 1017.3
20260505025519 17 241 0.0 3.2 0.00 0.00 0.00 68 1017.2
20260505025038 17 241 0.0 3.2 0.00 0.00 0.00 70 1017.2
20260505024619 17 241 0.0 0.0 0.00 0.00 0.00 70 1017.1
20260505024040 17 241 0.0 0.0 0.00 0.00 0.00 71 1017.3
20260505023521 17 241 0.0 0.0 0.00 0.00 0.00 71 1017.2
20260505023151 17 241 0.0 0.0 0.00 0.00 0.00 72 1017.2
20260505022519 17 241 0.0 0.0 0.00 0.00 0.00 74 1017.0
20260505022032 17 241 0.0 0.0 0.00 0.00 0.00 74 1017.1
20260505021641 17 241 0.0 0.0 0.00 0.00 0.00 72 1016.9
20260505021019 17 241 0.0 0.0 0.00 0.00 0.00 70 1017.0
20260505020539 17 241 0.0 0.0 0.00 0.00 0.00 69 1016.9
20260505020149 18 241 0.0 0.0 0.00 0.00 0.00 67 1016.8
20260505015529 18 241 0.0 0.0 0.00 0.00 0.00 66 1016.8
20260505015023 18 241 0.0 0.0 0.00 0.00 0.00 66 1016.7
20260505014644 18 241 0.0 0.0 0.00 0.00 0.00 66 1016.6
20260505014021 18 241 0.0 1.6 0.00 0.00 0.00 68 1016.7
20260505013523 18 241 0.0 6.4 0.00 0.00 0.00 67 1016.7
20260505013137 18 241 0.0 6.4 0.00 0.00 0.00 66 1016.6
20260505012538 18 241 0.0 6.4 0.00 0.00 0.00 66 1016.7
20260505012028 18 78 0.0 4.8 0.00 0.00 0.00 68 1016.5
20260505011651 18 78 0.0 4.8 0.00 0.00 0.00 68 1016.5
20260505011025 18 78 0.0 0.0 0.00 0.00 0.00 66 1016.4
20260505010544 19 78 0.0 0.0 0.00 0.00 0.00 65 1016.3
20260505010227 19 78 0.0 3.2 0.00 0.00 0.00 66 1016.3
20260505005520 19 78 0.0 3.2 0.00 0.00 0.00 67 1016.4
20260505005043 19 78 0.0 3.2 0.00 0.00 0.00 64 1016.2
20260505004625 19 78 0.0 1.6 0.00 0.00 0.00 63 1016.5
20260505004022 20 78 0.0 0.0 0.00 0.00 0.00 67 1016.2
20260505003537 20 78 0.0 0.0 0.00 0.00 0.00 66 1016.3
20260505003138 20 78 0.0 0.0 0.00 0.00 0.00 66 1016.2
20260505002540 20 78 0.0 0.0 0.00 0.00 0.00 62 1016.0
20260505002041 21 78 0.0 3.2 0.00 0.00 0.00 61 1015.9
20260505001654 21 78 0.0 3.2 0.00 0.00 0.00 61 1016.2
20260505001036 21 78 0.0 3.2 0.00 0.00 0.00 61 1016.0
20260505000529 21 51 0.0 3.2 0.00 0.00 0.00 61 1016.2
20260505000223 22 51 0.0 3.2 0.00 0.00 0.00 61 1016.2
20260504235528 22 229 0.0 3.2 0.00 0.00 0.00 57 1016.1
20260504235024 22 229 0.0 1.6 0.00 0.00 0.00 55 1016.1
20260504234649 22 229 0.0 1.6 0.00 0.00 0.00 56 1015.9
20260504234021 22 229 0.0 3.2 0.00 0.00 0.00 52 1015.8
20260504233529 22 229 0.0 3.2 0.00 0.00 0.00 51 1015.9
20260504233125 22 229 0.0 3.2 0.00 0.00 0.00 52 1015.9
20260504232529 23 229 0.0 3.2 0.00 0.00 0.00 52 1016.0
20260504232037 23 229 0.0 3.2 0.00 0.00 0.00 49 1016.0
20260504231703 23 229 1.6 4.8 0.00 0.00 0.00 48 1015.8
20260504231040 23 229 1.6 4.8 0.00 0.00 0.00 47 1016.0
20260504230525 23 234 1.6 4.8 0.00 0.00 0.00 50 1015.8
20260504230210 23 234 1.6 4.8 0.00 0.00 0.00 47 1015.8
20260504225526 24 242 1.6 6.4 0.00 0.00 0.00 46 1015.8
20260504225041 24 271 1.6 6.4 0.00 0.00 0.00 46 1015.8